Погода в Гиганте

Погода в Гиганте : погода сейчас, прогноз погоды и архив. Всё, что Вы хотите узнать о погоде в Гиганте!

Поиск расширенной информации на нашем сайте:

Другие новости

Новости СМИ2

Главная страница сайта

Новости сайта

03.07.2017

Напоминаем, что на нашем специализированном сайте Метеоцентр.Азия вы можете получить высокодетализированные автоматические прогнозы погоды по пунктам России, СНГ и мира в авиационном формате (включающие направление и скорость ветра, видимость, явления погоды, количество и форму облачности, нижнюю и верхнюю границу облачности).

Рекомендуем: приворот вуду, услуги черной ведьмы Софии Драгош

Погода в Гиганте - сегодня

Время (UTC), дата Ветер
(°,м/с) 
Видим.   Явления Облачность Т
(°С)
Тd
(°С)
f(%) Тe
(°С)
Pmin
(гПа)
dP
(гПа)
Po
(мм)
O2
(г/м3)
Тmin Tmax R s Состояние
почвы
06 09.02.18 110 (В) 4{12}  4000 м  дымка{ливн. осадки}  10/10 300 м 
[St]
+1 +0.8 99 -1  1016.8  -0.5  755  303  +0.6         
09 09.02.18 100 (В) 5{11}  4000 м  слаб. морось  10/10 300 м 
[St]
+1.9 +1.6 98 -1  1016.5  -0.3  755  302           
12 09.02.18 120 (ЮВ) 5{10}  4000 м  слаб. дождь{морось}  10/10 300 м 
[Ns]
+3.2 +2.6 96 +1  1015.8  -0.7  755  300           
15 09.02.18 100 (В) 4000 м  слаб. дождь  10/10 300 м 
[Ns]
+4 +3.6 97 +3  1016.4  0.7  755  299    +4     
18 09.02.18 110 (В) 4000 м  слаб. дождь  10/10 300 м 
[Ns]
+3.9 +3.5 97 +2  1017.3  0.9  756  300           
21 09.02.18 100 (В) 4000 м  слаб. дождь  10/10 300 м 
[Ns]
+2.3 +2 98 1017.7  0.3  756  302           
03 10.02.18 100 (В) 2000 м  дымка{дождь}  10/10 300 м 
[St]
+0.5 +0.3 99 -2  1019.6  0.6  757  305  +0.5       
09 10.02.18 100 (В) 4000 м  дымка  10/10 600 м 
[Sc]
+1.3 +0.8 96 -1  1021.1  0.5  758  304           
18 10.02.18 100 (В) 0500 м  туман  н/о 
+0.4 +0.3 99 -3  1020.9  -0.7  758  305           
21 10.02.18 110 (В) 5{10}  0500 м  туман  ?/?  
+1.2 +1.1 99 -2  1020.3  -0.5  758  304           
03 11.02.18 100 (В) 5{10}  2000 м  дымка  10/10 300 м 
[St]
-0.7 -0.9 99 -4  1018.6  -0.6  757  306  -0.7         
15 11.02.18 090 (В) 8-13{14}  20000 м    10/10 600 м 
[Sc]
+1.1 -1.5 83 -3  1012.2  -1.4  752  302    +1.1       
03 12.02.18 100 (В) 9-15{18}  4000 м  слаб. крупа{снег}  10/10 600 м кучево-дожд. 
[Cb cap]
-1.9 -5.6 76 -7  1008.5  -1.3  749  304  -1.9    0.0     
15 12.02.18 100 (В) 4000 м  слаб. крупа{ливн. осадки} [диам. гололёда 3 мм]  10/10 600 м кучево-дожд. 
[Cb cap]
-2.6 -3.2 96 -5  1011.3  1.5  751  306    -1.8     
03 13.02.18 120 (ЮВ) 4000 м  слаб. ливневой снег [диам. гололёда 4 мм]  10/10 600 м кучево-дожд. 
[Cb cap]
-2.6 -3.2 96 -4  1014.3  0.6  753  307  -3.1    0.4  равномерный
мокрый или
старый снег
100% 
03 14.02.18 100 (В) 2000 м  слаб. ливневой снег [диам. гололёда 2 мм]  10/10 600 м кучево-дожд. 
[Cb cap]
-1.6 -1.8 99 -1  1021.3  0.9  758  308  -2.3    равномерный
сухой снег
100% 
09 14.02.18 110 (В) 2000 м  в посл. час туман  9/9 600 м 
[Sc diur, vesp]
+1.7 +1.3 97 +2  1024.1  1.2  761  304           
18 14.02.18 070 (В) 4000 м  дымка  10/10 600 м 
[Sc]
-0.8 -1.1 98 -3  1026.3  0.6  762  308           
21 14.02.18 100 (В) 2000 м  дымка  10/10 600 м 
[Sc]
-2.3 -2.6 98 -6  1026.1  -0.3  762  310           
03 15.02.18 100 (В) 5{10}  2000 м  дымка  10/10 600 м 
[Sc]
-1.5 -1.8 98 -5  1027.1  0.8  763  309  -2.4      равномерный
сухой снег
100% 
15 15.02.18 110 (В) 6-11{13}  4000 м  дымка  10/10 300 м 
[St]
-0.7 -1.5 94 -4  1029.1  -0.6  764  309    -0.5       
03 16.02.18 090 (В) 6{11}  2000 м  дымка  10/10 300 м 
[St]
-2.8 -3.1 98 -7  1029.8  0.2  765  312  -3.2      равномерный
сухой снег
100% 
15 16.02.18 100 (В) 6{11}  4000 м  дымка  10/10 300 м 
[St]
-0.3 -0.7 97 -4  1028.5  -0.4  764  308    -0.2       
03 17.02.18 090 (В) 6{10}  1000 м  дымка  10/10 300 м 
[St]
-0.8 -1 99 -4  1025.5  -0.8  762  308  -0.8      равномерный
мокрый или
старый снег
100% 
21 17.02.18 100 (В) 1000 м  дымка{морось}  10/10 300 м 
[St]
+0.2 +0 99 -2  1020.1  -1.2  758  305           
Время (UTC), дата Ветер
(°,м/с) 
Видим.   Явления Облачность Т
(°С)
Тd
(°С)
f(%) Тe
(°С)
Pmin
(гПа)
dP
(гПа)
Po
(мм)
O2
(г/м3)
Тmin Tmax R s Состояние
почвы

Для получения пояснительной информации подведите курсор к названию столбца.

ПОГОДА в Гиганте - архив

Всё, что Вы хотите узнать о погоде в Гиганте - удобно и подробно!

Выберите нужную дату (начиная с 1 января 2015* года) и нажмите кнопку "Найти".
Будут отображены архивные сводки погоды по пункту Гигант, начиная с указанной даты.


Отображать данные в формате CSV (для использования в таблицах Excel)


Внимание! Наш архив погоды предназначен исключительно для личного некоммерческого использования в познавательных целях. Если Вам необходимы официальные справки о состоянии погоды (для производственных, юридических, коммерческих и т.п. целей), обращайтесь в органы Росгидромета.

*Примечание: данная дата относится к архиву по метеостанциям СССР (Россия, СНГ, Балтия).
Архив по метеостанциям Зарубежной Европы и Азии (кроме Китая) хранится 10 дней, по другим регионам земного шара (Китай, Африка, Америка, Австралия, Океания) - 1 день.

Гигант - район местоположения метеостанции


Название, широта, долгота, высота метеостанции:
Гигант 46.5°ш. 41.3°д. 79 м над ур. моря [Российская Федерация]

Дополнительная информация

В oтличие oт бoльшинства пoгoдных сайтoв мы публикуем пoдрoбную метеoинфoрмацию в детальнoм прoфессиoнальнoм фoрмате.

Характеристики температуры и влажнoсти вoздуха измеряются на высoте 2 м в тени вдали oт зданий и деревьев.
Скoрoсть ветра измеряется на высoте 10 м (на урoвне рoста челoвека скoрoсть ветра ниже в 1.5-2 раза). Если метеoстанция нахoдится в гoрoде или в лесу, тo скoрoсть ветра занижена на 2-4 м/с пo сравнению с oткрытым местoм. Скoрoсть ветра над акватoриями крупных рек и oзёр, а также на вершинах хoлмoв на 2-5 м/с выше, чем в oбычных услoвиях.
Атмoсфернoе давление в разных тoчках местнoсти мoжет значительнo oтличаться oт давления на метеoстанции, в зависимoсти oт услoвий рельефа (при пoдъёме на 10 м давление пoнижается примернo на 1 мм рт.ст.).